TimeEST,TemperatureF,Dew PointF,Humidity,Sea Level PressureIn,VisibilityMPH,Wind Direction,Wind SpeedMPH,Gust SpeedMPH,PrecipitationIn,Events,Conditions,WindDirDegrees,DateUTC
12:15 AM,48.2,26.6,43,30.43,10.0,NNE,10.4,-,N/A,,Scattered Clouds,30,2012-11-18 05:15:00
12:35 AM,48.2,28.4,46,30.43,10.0,NNE,8.1,17.3,N/A,,Mostly Cloudy,30,2012-11-18 05:35:00
12:55 AM,48.2,26.6,43,30.43,10.0,NE,9.2,17.3,N/A,,Overcast,40,2012-11-18 05:55:00
1:15 AM,46.4,26.6,46,30.43,10.0,NE,10.4,-,N/A,,Mostly Cloudy,40,2012-11-18 06:15:00
1:35 AM,46.4,28.4,50,30.43,10.0,NNE,10.4,-,N/A,,Scattered Clouds,30,2012-11-18 06:35:00
1:55 AM,46.4,28.4,50,30.42,10.0,NE,11.5,-,N/A,,Scattered Clouds,40,2012-11-18 06:55:00
2:15 AM,46.4,28.4,50,30.42,10.0,NNE,15.0,19.6,N/A,,Scattered Clouds,30,2012-11-18 07:15:00
2:35 AM,46.4,28.4,50,30.42,10.0,NNE,12.7,17.3,N/A,,Scattered Clouds,30,2012-11-18 07:35:00
3:15 AM,46.4,30.2,53,30.42,10.0,NNE,11.5,-,N/A,,Overcast,20,2012-11-18 08:15:00
3:35 AM,46.4,30.2,53,30.42,10.0,NNE,11.5,17.3,N/A,,Overcast,30,2012-11-18 08:35:00
3:55 AM,48.2,30.2,50,30.41,10.0,NNE,11.5,21.9,N/A,,Overcast,30,2012-11-18 08:55:00
4:15 AM,48.2,32.0,54,30.40,10.0,NNE,15.0,20.7,N/A,,Overcast,20,2012-11-18 09:15:00
4:35 AM,48.2,32.0,54,30.41,10.0,NNE,12.7,19.6,N/A,,Overcast,30,2012-11-18 09:35:00
5:15 AM,48.2,33.8,58,30.41,10.0,NNE,12.7,19.6,N/A,,Mostly Cloudy,20,2012-11-18 10:15:00
5:35 AM,48.2,33.8,58,30.42,10.0,NNE,12.7,-,N/A,,Overcast,30,2012-11-18 10:35:00
5:55 AM,50.0,33.8,54,30.43,10.0,NNE,10.4,18.4,N/A,,Overcast,30,2012-11-18 10:55:00
6:15 AM,50.0,35.6,58,30.43,10.0,NE,6.9,18.4,N/A,,Overcast,50,2012-11-18 11:15:00
6:35 AM,50.0,35.6,58,30.42,10.0,NNE,11.5,17.3,N/A,,Overcast,30,2012-11-18 11:35:00
6:55 AM,48.2,35.6,62,30.42,10.0,NNE,6.9,10.4,N/A,,Overcast,20,2012-11-18 11:55:00
7:15 AM,48.2,35.6,62,30.42,10.0,North,12.7,-,N/A,,Scattered Clouds,10,2012-11-18 12:15:00
7:35 AM,46.4,35.6,66,30.42,10.0,North,8.1,-,N/A,,Mostly Cloudy,360,2012-11-18 12:35:00
7:55 AM,46.4,33.8,62,30.43,10.0,North,11.5,-,N/A,,Overcast,10,2012-11-18 12:55:00
8:15 AM,48.2,33.8,58,30.43,10.0,NNE,9.2,-,N/A,,Overcast,20,2012-11-18 13:15:00
8:35 AM,50.0,33.8,54,30.43,10.0,North,9.2,16.1,N/A,,Overcast,10,2012-11-18 13:35:00
8:55 AM,50.0,33.8,54,30.43,10.0,North,12.7,17.3,N/A,,Overcast,10,2012-11-18 13:55:00
9:15 AM,51.8,35.6,54,30.43,10.0,North,13.8,17.3,N/A,,Mostly Cloudy,10,2012-11-18 14:15:00
9:35 AM,51.8,37.4,58,30.43,10.0,NNE,12.7,17.3,N/A,,Overcast,30,2012-11-18 14:35:00
10:15 AM,53.6,39.2,58,30.42,10.0,NNE,11.5,21.9,N/A,,Overcast,30,2012-11-18 15:15:00
10:35 AM,53.6,41.0,62,30.43,10.0,NE,12.7,16.1,N/A,,Overcast,40,2012-11-18 15:35:00
10:55 AM,55.4,41.0,58,30.42,10.0,NE,11.5,21.9,N/A,,Overcast,50,2012-11-18 15:55:00
11:15 AM,55.4,41.0,58,30.42,10.0,NNE,15.0,19.6,N/A,,Overcast,20,2012-11-18 16:15:00
11:35 AM,57.2,42.8,59,30.41,10.0,NE,12.7,19.6,N/A,,Mostly Cloudy,40,2012-11-18 16:35:00
11:55 AM,59.0,42.8,55,30.40,10.0,NE,17.3,21.9,N/A,,Scattered Clouds,50,2012-11-18 16:55:00
12:15 PM,59.0,42.8,55,30.39,10.0,NNE,15.0,21.9,N/A,,Clear,20,2012-11-18 17:15:00
12:35 PM,60.8,42.8,52,30.38,10.0,NNE,16.1,21.9,N/A,,Mostly Cloudy,20,2012-11-18 17:35:00
12:55 PM,60.8,42.8,52,30.37,10.0,NNE,17.3,23.0,N/A,,Mostly Cloudy,20,2012-11-18 17:55:00
1:15 PM,60.8,42.8,52,30.36,10.0,NNE,16.1,23.0,N/A,,Overcast,20,2012-11-18 18:15:00
1:35 PM,60.8,42.8,52,30.35,10.0,NNE,13.8,17.3,N/A,,Overcast,20,2012-11-18 18:35:00
2:15 PM,60.8,42.8,52,30.35,10.0,NE,12.7,18.4,N/A,,Overcast,50,2012-11-18 19:15:00
2:35 PM,60.8,42.8,52,30.34,10.0,NNE,12.7,-,N/A,,Overcast,30,2012-11-18 19:35:00
2:55 PM,60.8,42.8,52,30.33,10.0,North,11.5,18.4,N/A,,Mostly Cloudy,10,2012-11-18 19:55:00
3:15 PM,62.6,42.8,48,30.33,10.0,NE,11.5,17.3,N/A,,Mostly Cloudy,40,2012-11-18 20:15:00
4:15 PM,60.8,42.8,52,30.34,10.0,NNE,11.5,-,N/A,,Clear,30,2012-11-18 21:15:00
4:55 PM,60.8,41.0,48,30.34,10.0,NE,9.2,18.4,N/A,,Clear,40,2012-11-18 21:55:00
5:35 PM,59.0,41.0,51,30.34,10.0,NE,8.1,-,N/A,,Clear,40,2012-11-18 22:35:00
5:55 PM,57.2,41.0,55,30.34,10.0,NE,11.5,17.3,N/A,,Clear,40,2012-11-18 22:55:00
6:15 PM,55.4,41.0,58,30.34,10.0,NE,8.1,-,N/A,,Clear,40,2012-11-18 23:15:00
6:35 PM,55.4,41.0,58,30.34,10.0,NNE,9.2,-,N/A,,Clear,20,2012-11-18 23:35:00
7:35 PM,53.6,41.0,62,30.34,10.0,NNE,9.2,-,N/A,,Clear,30,2012-11-19 00:35:00
7:55 PM,53.6,42.8,67,30.35,10.0,NNE,10.4,-,N/A,,Scattered Clouds,30,2012-11-19 00:55:00
8:15 PM,55.4,41.0,58,30.35,10.0,NNE,11.5,16.1,N/A,,Mostly Cloudy,20,2012-11-19 01:15:00
8:35 PM,55.4,41.0,58,30.36,10.0,NNE,10.4,-,N/A,,Overcast,20,2012-11-19 01:35:00
8:55 PM,55.4,41.0,58,30.36,10.0,NNE,11.5,-,N/A,,Overcast,30,2012-11-19 01:55:00
9:15 PM,53.6,41.0,62,30.36,10.0,NNE,11.5,17.3,N/A,,Mostly Cloudy,30,2012-11-19 02:15:00
9:35 PM,55.4,41.0,58,30.37,10.0,NNE,15.0,21.9,N/A,,Mostly Cloudy,30,2012-11-19 02:35:00
9:55 PM,55.4,41.0,58,30.37,10.0,NNE,12.7,18.4,N/A,,Overcast,30,2012-11-19 02:55:00
10:15 PM,55.4,41.0,58,30.37,10.0,NNE,16.1,23.0,N/A,,Overcast,30,2012-11-19 03:15:00
10:35 PM,53.6,41.0,62,30.37,10.0,NNE,13.8,19.6,N/A,,Overcast,30,2012-11-19 03:35:00
10:55 PM,53.6,41.0,62,30.36,10.0,NE,11.5,26.5,N/A,,Overcast,50,2012-11-19 03:55:00
11:35 PM,53.6,41.0,62,30.36,10.0,NE,9.2,18.4,N/A,,Overcast,40,2012-11-19 04:35:00
11:55 PM,53.6,41.0,62,30.35,10.0,NE,11.5,17.3,N/A,,Overcast,40,2012-11-19 04:55:00